This is the latest recevied weather packets stored in our database for station/object SV9TNF-52. If no packets are shown the sender has not sent any weather packets the latest 10 day(s).
| Time | Temp. | Humidity | Pressure | Rain* | Wind** | Luminosity | Snow |
|---|---|---|---|---|---|---|---|
| 1787916080 | 30.56° C | 61% | 1020.3 hPa | 0 mm | 8.49 m/s, 357° | - | - |
| 1787915780 | 30.56° C | 61% | 1020.3 hPa | 0 mm | 7.15 m/s, 272° | - | - |
| 1787915480 | 31.67° C | 59% | 1020.3 hPa | 0 mm | 10.73 m/s, 90° | - | - |
| 1787915181 | 31.67° C | 58% | 1020.3 hPa | 0 mm | 4.47 m/s, 345° | - | - |
| 1787914880 | 31.67° C | 58% | 1020.3 hPa | 0 mm | 5.81 m/s, 218° | - | - |
| 1787914580 | 31.11° C | 59% | 1020.3 hPa | 0 mm | 7.6 m/s, 330° | - | - |
| 1787914280 | 31.67° C | 57% | 1020.3 hPa | 0 mm | 4.47 m/s, 62° | - | - |
| 1787913980 | 31.11° C | 59% | 1020.3 hPa | 0 mm | 8.49 m/s, 299° | - | - |
| 1787913680 | 31.11° C | 59% | 1020.3 hPa | 0 mm | 12.07 m/s, 359° | - | - |
| 1787913380 | 30° C | 61% | 1020.3 hPa | 0 mm | 12.07 m/s, 90° | - | - |
| 1787913080 | 30.56° C | 61% | 1020.3 hPa | 0 mm | 15.2 m/s, 298° | - | - |
| 1787912779 | 31.11° C | 60% | 1020.3 hPa | 0 mm | 15.2 m/s, 70° | - | - |
| 1787912480 | 31.67° C | 58% | 1020.3 hPa | 0 mm | 6.26 m/s, 28° | - | - |
| 1787912179 | 31.67° C | 59% | 1020.3 hPa | 0 mm | 5.81 m/s, 346° | - | - |
| 1787911887 | 31.67° C | 59% | 1020.3 hPa | 0 mm | 4.02 m/s, 279° | - | - |
| 1787911579 | 32.78° C | 59% | 1020.3 hPa | 0 mm | 7.15 m/s, 247° | - | - |
| 1787911279 | 32.22° C | 57% | 1020.3 hPa | 0 mm | 7.15 m/s, 175° | - | - |
| 1787910979 | 32.78° C | 56% | 1020.3 hPa | 0 mm | 6.71 m/s, 351° | - | - |
| 1787910679 | 33.33° C | 53% | 1020.3 hPa | 0 mm | 4.92 m/s, 262° | - | - |
| 1787910379 | 33.33° C | 53% | 1020.3 hPa | 0 mm | 3.13 m/s, 301° | - | - |
| 1787910078 | 33.33° C | 53% | 1020.3 hPa | 0 mm | 4.92 m/s, 264° | - | - |
| 1787909778 | 33.33° C | 55% | 1020.3 hPa | 0 mm | 4.02 m/s, 171° | - | - |
| 1787909479 | 33.33° C | 55% | 1020.3 hPa | 0 mm | 6.26 m/s, 347° | - | - |
| 1787909178 | 33.33° C | 55% | 1020.3 hPa | 0 mm | 4.02 m/s, 232° | - | - |
| 1787908878 | 33.33° C | 54% | 1020.3 hPa | 0 mm | 4.47 m/s, 209° | - | - |
* Rain latest hour (hover to see other rain measurements)
** Current wind speed in m/s (hover to see current wind gust speed)